Monticello, KY

7:01 AM EDT on April 24, 2018 (GMT -0400)
Wayne County

Weather History for KEKQ - February, 2012

Change the Weather History Date:

Sunday, February 26, 2012

  Actual Average Record
Temperature  
Mean Temperature 38 °F -  
Max Temperature 57 °F 51 °F 81 °F (1977)
Min Temperature 18 °F 26 °F 4 °F (1967)
Degree Days  
Heating Degree Days 28    
Moisture  
Dew Point 20 °F    
Average Humidity 51    
Maximum Humidity 92    
Minimum Humidity 22    
Precipitation  
Precipitation 0.00 in - - ()
Sea Level Pressure  
Sea Level Pressure 30.36 in    
Wind  
Wind Speed 3 mph (South)    
Max Wind Speed 10 mph    
Max Gust Speed -    
Visibility 10 miles    
Events      
Averages and records for this station are not official NWS values.
T = Trace of Precipitation, MM = Missing Value Source: NWS Daily Summary

Daily Weather History Graph

Daily Weather History Graph

Search for Another Location

Airport or City:

Astronomy

Feb. 26, 2012 Rise Set
Actual Time 6:14 AM CST 5:30 PM CST
Civil Twilight 5:48 AM CST 5:56 PM CST
Nautical Twilight 5:18 AM CST 6:26 PM CST
Astronomical Twilight 4:48 AM CST 6:56 PM CST
Moon 8:18 AM CST (2/26) 10:17 PM CST (2/26)
Length of Visible Light 12h 07m
Length of Day
11h 15m
Waxing Crescent, 21% of the Moon is Illuminated
Feb 26
Waxing Crescent
Feb 29
First Quarter
Mar 8
Full
Mar 14
Last Quarter
Mar 22
New

Hourly Weather History & Observations

Time (CST) Temp. Windchill Dew Point Humidity Pressure Visibility Wind Dir Wind Speed Gust Speed Precip Events Conditions
12:56 AM 18.1 °F - 16.2 °F 92% 30.43 in 10.0 mi Calm Calm - N/A   Clear
1:56 AM 18.1 °F - 16.2 °F 92% 30.43 in 10.0 mi Calm Calm - N/A   Clear
3:56 AM 18.1 °F - 15.1 °F 88% 30.43 in 10.0 mi Calm Calm - N/A   Clear
4:56 AM 18.1 °F - 14.0 °F 84% 30.45 in 10.0 mi Calm Calm - N/A   Clear
7:56 AM 32.9 °F - 23.0 °F 67% 30.45 in 10.0 mi Calm Calm - N/A   Clear
9:56 AM 43.9 °F 39.9 °F 23.0 °F 44% 30.43 in 10.0 mi SSE 6.9 mph - N/A   Clear
11:56 AM 52.0 °F - 17.1 °F 25% 30.38 in 10.0 mi SSE 5.8 mph - N/A   Clear
12:56 PM 55.9 °F - 18.1 °F 23% 30.35 in 10.0 mi WSW 9.2 mph - N/A   Clear
1:56 PM 56.8 °F - 18.1 °F 22% 30.32 in 10.0 mi Variable 4.6 mph - N/A   Clear
2:56 PM 57.9 °F - 19.0 °F 22% 30.31 in 10.0 mi South 4.6 mph - N/A   Clear
3:56 PM 57.9 °F - 21.0 °F 24% 30.29 in 10.0 mi SSW 5.8 mph - N/A   Clear
4:56 PM 55.9 °F - 19.0 °F 24% 30.29 in 10.0 mi South 9.2 mph - N/A   Clear
5:56 PM 52.9 °F - 19.0 °F 26% 30.29 in 10.0 mi SE 9.2 mph - N/A   Clear
6:56 PM 50.0 °F - 20.1 °F 31% 30.30 in 10.0 mi SSE 10.4 mph - N/A   Clear
7:56 PM 48.9 °F - 21.0 °F 33% 30.29 in 10.0 mi SSE 8.1 mph - N/A   Clear
8:56 PM 43.0 °F 41.3 °F 23.0 °F 45% 30.32 in 10.0 mi WSW 3.5 mph - N/A   Clear
9:56 PM 32.9 °F - 25.2 °F 73% 30.34 in 10.0 mi Calm Calm - N/A   Clear
10:56 PM 32.9 °F - 25.2 °F 73% 30.35 in 10.0 mi Calm Calm - N/A   Clear
11:56 PM 31.1 °F - 25.2 °F 79% 30.35 in 10.0 mi Calm Calm - N/A   Clear